Location: Blankensee
(53.5126°N, 14.3055°E)
Time: 18:01:10
(UTC+00:00)

FALCON 9 DEB - Pass Details

Date: 08 August 2020
Orbit: 428 x 441 km, 53.0° (Epoch: 19 September)

Event Time Altitude Azimuth Distance (km) Brightness Sun altitude
Exits shadow 01:08:59 11° 277° (W) 1,501 5.6 -15.8°
Maximum altitude 01:12:15 52° 200° (SSW) 556 3.2 -15.5°
Drops below altitude 10° 01:15:39 10° 124° (SE) 1,550 5.9 -15.3°
Sets 01:17:47 0° 119° (ESE) 2,414 6.9 -15.1°
